FW5837 Weather Reports


Display with metric or nautical units.
time (UTC)temp
F
wind
direction
speed
MPH
gust
MPH
rain 1hr
in
rain 24hr
in
rain mn
in
humidity
%
barometer
mb
20260509152529 38 90 1.0 10.0 0.08 0.19 0.19 95 1012.0
20260509152029 38 96 2.0 10.0 0.09 0.19 0.19 95 1012.0
20260509151544 38 166 3.0 7.0 0.08 0.18 0.18 95 1012.1
20260509151032 38 131 1.0 6.0 0.08 0.17 0.17 95 1012.0
20260509150533 38 120 2.0 7.0 0.07 0.16 0.16 95 1012.1
20260509150049 38 115 4.0 7.0 0.06 0.15 0.15 95 1012.1
20260509145531 38 134 2.0 9.0 0.06 0.14 0.14 95 1012.1
20260509145033 38 167 3.0 9.0 0.05 0.13 0.13 94 1012.1
20260509144544 38 146 3.0 8.0 0.06 0.13 0.13 94 1012.1
20260509144029 38 116 2.0 10.0 0.05 0.12 0.12 94 1012.1
20260509143533 38 139 4.0 10.0 0.06 0.12 0.12 94 1012.0
20260509143050 38 160 3.0 8.0 0.06 0.11 0.11 94 1012.1
20260509142532 38 140 2.0 8.0 0.06 0.11 0.11 94 1011.9
20260509142029 38 136 3.0 8.0 0.06 0.10 0.10 94 1011.9
20260509141546 38 90 3.0 8.0 0.06 0.10 0.10 94 1011.9
20260509141029 38 128 3.0 8.0 0.06 0.09 0.09 94 1011.9
20260509140529 38 0 3.0 8.0 0.06 0.09 0.09 94 1011.8
20260509140048 38 120 2.0 10.0 0.07 0.09 0.09 94 1011.8
20260509135530 38 99 4.0 10.0 0.06 0.08 0.08 93 1011.8
20260509135031 38 141 5.0 10.0 0.06 0.08 0.08 93 1011.7
20260509134550 38 108 2.0 10.0 0.06 0.07 0.07 93 1011.7
20260509134029 38 132 3.0 10.0 0.05 0.06 0.06 93 1011.9
20260509133529 38 134 3.0 9.0 0.06 0.06 0.06 93 1011.8
20260509133057 38 118 3.0 7.0 0.05 0.05 0.05 93 1011.9
20260509132532 38 157 2.0 7.0 0.05 0.05 0.05 92 1011.9
20260509132028 38 136 1.0 7.0 0.04 0.04 0.04 92 1011.9
20260509131544 38 0 2.0 8.0 0.04 0.04 0.04 92 1011.9
20260509131033 38 115 3.0 8.0 0.03 0.03 0.03 91 1011.9
20260509130532 38 189 2.0 10.0 0.03 0.03 0.03 91 1011.8
20260509130045 38 181 3.0 10.0 0.02 0.02 0.02 90 1011.9
20260509125529 38 134 2.0 8.0 0.02 0.02 0.02 90 1011.8
20260509125032 38 134 2.0 8.0 0.01 0.01 0.01 89 1011.9
20260509124551 38 188 3.0 6.0 0.01 0.01 0.01 88 1011.8
20260509124032 38 126 1.0 4.0 0.01 0.01 0.01 87 1011.7
20260509123529 38 0 0.0 4.0 0.00 0.00 0.00 86 1011.8
20260509123047 39 185 0.0 4.0 0.00 0.00 0.00 86 1011.9
20260509122532 39 161 1.0 4.0 0.00 0.00 0.00 85 1011.9
20260509122032 38 0 1.0 4.0 0.00 0.00 0.00 84 1011.9
20260509121541 39 119 1.0 5.0 0.00 0.00 0.00 84 1011.9
20260509121034 39 110 2.0 6.0 0.00 0.00 0.00 83 1012.0
20260509120532 39 147 2.0 6.0 0.00 0.00 0.00 82 1012.0
20260509120048 38 124 2.0 8.0 0.00 0.00 0.00 81 1012.1
20260509115531 38 152 2.0 8.0 0.00 0.00 0.00 80 1012.1
20260509115029 38 79 3.0 8.0 0.00 0.00 0.00 80 1012.1
20260509114554 38 112 2.0 6.0 0.00 0.00 0.00 79 1012.2
20260509114034 38 126 0.0 7.0 0.00 0.00 0.00 79 1012.2
20260509113529 38 0 1.0 7.0 0.00 0.00 0.00 79 1012.4
20260509113045 38 190 2.0 7.0 0.00 0.00 0.00 79 1012.1
20260509112529 38 0 1.0 8.0 0.00 0.00 0.00 78 1012.2
20260509112028 38 153 3.0 8.0 0.00 0.00 0.00 78 1012.2
20260509111544 38 113 2.0 8.0 0.00 0.00 0.00 78 1012.3
20260509111028 38 167 3.0 9.0 0.00 0.00 0.00 77 1012.2
20260509110529 38 59 3.0 10.0 0.00 0.00 0.00 76 1012.2
20260509110043 38 151 3.0 10.0 0.00 0.00 0.00 76 1012.2
20260509105533 38 119 3.0 12.0 0.00 0.00 0.00 75 1012.2
20260509105029 38 115 4.0 12.0 0.00 0.00 0.00 74 1012.2
20260509104541 38 123 5.0 12.0 0.00 0.00 0.00 73 1012.2
20260509104028 38 118 5.0 11.0 0.00 0.00 0.00 72 1012.2
20260509103529 38 144 5.0 12.0 0.00 0.00 0.00 72 1012.1
20260509103046 38 150 5.0 12.0 0.00 0.00 0.00 71 1012.2
20260509102530 38 123 5.0 12.0 0.00 0.00 0.00 70 1012.1
20260509102029 38 121 4.0 11.0 0.00 0.00 0.00 70 1012.2
20260509101545 38 104 5.0 11.0 0.00 0.00 0.00 70 1012.1
20260509101028 38 127 3.0 11.0 0.00 0.00 0.00 70 1012.1
20260509100530 38 92 2.0 7.0 0.00 0.00 0.00 70 1012.0
20260509100053 38 82 3.0 8.0 0.00 0.00 0.00 70 1011.9
20260509095529 38 103 1.0 8.0 0.00 0.00 0.00 70 1012.1
20260509095029 38 68 3.0 8.0 0.00 0.00 0.00 69 1012.0
20260509094545 38 127 2.0 9.0 0.00 0.00 0.00 69 1012.0
20260509094028 37 126 2.0 9.0 0.00 0.00 0.00 69 1012.2
20260509093529 37 138 3.0 9.0 0.00 0.00 0.00 69 1012.1
20260509093041 37 131 3.0 9.0 0.00 0.00 0.00 69 1012.2
20260509092530 37 194 4.0 9.0 0.00 0.00 0.00 69 1012.1
20260509092029 37 103 3.0 8.0 0.00 0.00 0.00 69 1012.1
20260509091538 37 130 4.0 8.0 0.00 0.00 0.00 68 1012.1
20260509091029 37 146 4.0 8.0 0.00 0.00 0.00 68 1012.1
20260509090529 38 193 3.0 9.0 0.00 0.00 0.00 67 1012.1
20260509090045 38 140 2.0 9.0 0.00 0.00 0.00 67 1012.1
20260509085529 38 117 3.0 8.0 0.00 0.00 0.00 67 1012.0
20260509085030 38 137 3.0 8.0 0.00 0.00 0.00 67 1012.0
20260509084549 38 145 2.0 6.0 0.00 0.00 0.00 66 1011.9
20260509084031 37 169 3.0 6.0 0.00 0.00 0.00 67 1011.8
20260509083531 37 141 1.0 4.0 0.00 0.00 0.00 69 1011.7
20260509083042 37 146 2.0 3.0 0.00 0.00 0.00 69 1011.9
20260509082529 37 146 1.0 5.0 0.00 0.00 0.00 69 1011.7
20260509082032 37 146 1.0 5.0 0.00 0.00 0.00 68 1011.5
20260509081542 37 180 2.0 5.0 0.00 0.00 0.00 69 1011.7
20260509081031 37 149 0.0 4.0 0.00 0.00 0.00 70 1011.6
20260509080532 37 149 1.0 4.0 0.00 0.00 0.00 69 1011.6
20260509080055 37 155 2.0 4.0 0.00 0.00 0.00 68 1011.5
20260509075531 37 133 1.0 4.0 0.00 0.00 0.00 69 1011.4
20260509075030 37 135 1.0 4.0 0.00 0.00 0.00 68 1011.4
20260509074546 38 134 1.0 3.0 0.00 0.00 0.00 66 1011.5
20260509074028 38 76 1.0 3.0 0.00 0.00 0.00 65 1011.5
20260509073529 38 0 0.0 0.0 0.00 0.00 0.00 63 1011.5
20260509073137 38 0 0.0 0.0 0.00 0.00 0.00 64 1011.4
20260509072532 38 0 0.0 0.0 0.00 0.00 0.00 61 1011.3
20260509072031 38 0 0.0 0.0 0.00 0.00 0.00 65 1011.4
20260509071546 38 0 0.0 0.0 0.00 0.00 0.00 65 1011.4
20260509071028 38 0 0.0 0.0 0.00 0.00 0.00 66 1011.4
20260509070532 37 0 0.0 0.0 0.00 0.00 0.00 67 1011.5
20260509070042 37 0 0.0 0.0 0.00 0.00 0.00 68 1011.6
20260509065532 37 0 0.0 0.0 0.00 0.00 0.00 69 1011.6
20260509065032 37 0 0.0 0.0 0.00 0.00 0.00 70 1011.6
20260509064543 37 0 0.0 0.0 0.00 0.00 0.00 70 1011.5
20260509064032 37 0 0.0 0.0 0.00 0.00 0.00 70 1011.6
20260509063531 37 0 0.0 0.0 0.00 0.00 0.00 70 1011.6
20260509063044 37 0 0.0 0.0 0.00 0.00 0.00 69 1011.7
20260509062530 37 0 0.0 0.0 0.00 0.00 0.00 69 1011.7
20260509062033 37 0 0.0 0.0 0.00 0.00 0.00 70 1011.7
20260509061552 37 0 0.0 0.0 0.00 0.00 0.00 69 1011.7
20260509061031 36 0 0.0 0.0 0.00 0.00 0.00 70 1011.9
20260509060528 36 0 0.0 0.0 0.00 0.00 0.00 70 1011.9
20260509060049 36 0 0.0 0.0 0.00 0.00 0.00 70 1011.9
20260509055532 36 0 0.0 0.0 0.00 0.00 0.00 71 1011.9
20260509055034 36 0 0.0 0.0 0.00 0.00 0.00 71 1012.1
20260509054546 37 0 0.0 0.0 0.00 0.00 0.00 71 1012.0
20260509054031 37 0 0.0 0.0 0.00 0.00 0.00 72 1012.2
20260509053531 37 0 0.0 0.0 0.00 0.00 0.00 71 1012.1
20260509053049 37 0 0.0 0.0 0.00 0.00 0.00 71 1012.1
20260509052532 37 0 0.0 4.0 0.00 0.00 0.00 70 1012.1
20260509052035 37 0 0.0 4.0 0.00 0.00 0.00 70 1012.1
20260509051556 37 0 0.0 4.0 0.00 0.00 0.00 70 1012.1
20260509051032 37 0 0.0 4.0 0.00 0.00 0.00 70 1012.1
20260509050532 36 195 1.0 4.0 0.00 0.00 0.00 71 1012.1
20260509050048 36 134 1.0 4.0 0.00 0.00 0.00 72 1012.0
20260509045531 36 0 1.0 4.0 0.00 0.00 0.00 73 1012.0
20260509045035 36 114 1.0 4.0 0.00 0.00 0.00 72 1012.0
20260509044545 37 0 0.0 3.0 0.00 0.00 0.00 72 1011.9
20260509044035 37 0 0.0 2.0 0.00 0.00 0.00 72 1011.8
20260509043536 37 0 0.0 2.0 0.00 0.00 0.00 72 1011.8
20260509043049 37 0 0.0 3.0 0.00 0.00 0.00 72 1011.8
20260509042531 37 0 0.0 3.0 0.00 0.00 0.00 73 1011.8
20260509042033 37 0 0.0 2.0 0.00 0.00 0.00 73 1011.7
20260509041546 37 0 0.0 2.0 0.00 0.00 0.00 73 1011.7
20260509041031 37 0 0.0 2.0 0.00 0.00 0.00 73 1011.6
20260509040532 37 0 0.0 1.0 0.00 0.00 0.00 73 1011.5
20260509040052 37 0 0.0 3.0 0.00 0.00 0.00 72 1011.6
20260509035532 37 0 0.0 3.0 0.00 0.00 0.00 72 1011.6
20260509035031 37 0 0.0 3.0 0.00 0.00 0.00 72 1011.5
20260509034543 37 0 0.0 5.0 0.00 0.00 0.00 73 1011.6
20260509034028 37 235 1.0 5.0 0.00 0.00 0.00 73 1011.7
20260509033528 37 234 1.0 6.0 0.00 0.00 0.00 73 1011.6
20260509033046 37 248 2.0 6.0 0.00 0.00 0.00 73 1011.6
20260509032532 37 236 2.0 8.0 0.00 0.00 0.00 73 1011.7
20260509032028 37 240 2.0 8.0 0.00 0.00 0.00 73 1011.6
20260509031546 37 227 1.0 4.0 0.00 0.00 0.00 73 1011.6
20260509031028 37 249 1.0 4.0 0.00 0.00 0.00 73 1011.6
20260509030531 37 249 1.0 4.0 0.00 0.00 0.00 73 1011.6
20260509030043 37 0 1.0 4.0 0.00 0.00 0.00 73 1011.5
20260509025530 37 209 0.0 3.0 0.00 0.00 0.00 73 1011.5
20260509025032 38 0 0.0 5.0 0.00 0.00 0.00 73 1011.5
20260509024537 38 0 0.0 5.0 0.00 0.00 0.00 72 1011.4
20260509024032 38 137 1.0 5.0 0.00 0.00 0.00 73 1011.4
20260509023531 38 213 0.0 4.0 0.00 0.00 0.00 72 1011.4
20260509023047 38 0 0.0 5.0 0.00 0.00 0.00 72 1011.4
20260509022531 38 222 2.0 9.0 0.00 0.00 0.00 72 1011.4
20260509022032 38 229 3.0 9.0 0.00 0.00 0.00 72 1011.3
20260509021543 38 246 2.0 4.0 0.00 0.00 0.00 72 1011.3
20260509021031 38 246 1.0 5.0 0.00 0.00 0.00 72 1011.3
20260509020531 38 247 2.0 5.0 0.00 0.00 0.00 72 1011.1
20260509020043 38 219 1.0 7.0 0.00 0.00 0.00 72 1011.1
20260509015535 39 202 3.0 7.0 0.00 0.00 0.00 71 1011.0
20260509015031 38 244 1.0 4.0 0.00 0.00 0.00 72 1010.9
20260509014543 39 0 1.0 4.0 0.00 0.00 0.00 72 1011.0
20260509014028 38 298 1.0 4.0 0.00 0.00 0.00 72 1010.9
20260509013533 38 250 1.0 4.0 0.00 0.00 0.00 72 1010.8
20260509013058 38 226 1.0 3.0 0.00 0.00 0.00 72 1010.9
20260509012532 38 240 1.0 4.0 0.00 0.00 0.00 72 1010.9
20260509012028 39 240 1.0 4.0 0.00 0.00 0.00 72 1010.9
20260509011539 39 233 2.0 4.0 0.00 0.00 0.00 72 1010.7
20260509011028 39 247 2.0 5.0 0.00 0.00 0.00 71 1010.7
20260509010531 39 231 2.0 7.0 0.00 0.00 0.00 71 1010.7
20260509010044 39 240 1.0 7.0 0.00 0.00 0.00 71 1010.5
20260509005532 39 244 2.0 7.0 0.00 0.00 0.00 71 1010.5
20260509005031 39 225 2.0 6.0 0.00 0.00 0.00 70 1010.5
20260509004608 39 257 2.0 6.0 0.00 0.00 0.00 71 1010.3
20260509004033 39 241 2.0 5.0 0.00 0.00 0.00 71 1010.2
20260509003532 39 241 2.0 7.0 0.00 0.00 0.00 70 1010.1
20260509003048 39 236 3.0 7.0 0.00 0.00 0.00 70 1009.9
20260509002533 40 239 3.0 9.0 0.00 0.00 0.00 70 1009.8
20260509002031 40 242 3.0 10.0 0.00 0.00 0.00 69 1009.7
20260509001544 40 261 5.0 10.0 0.00 0.00 0.00 70 1009.6
20260509001028 40 238 3.0 8.0 0.00 0.00 0.00 69 1009.7
20260509000531 40 211 4.0 10.0 0.00 0.00 0.00 69 1009.8
20260509000039 40 250 4.0 10.0 0.00 0.00 0.00 69 1009.8
20260508235530 40 221 3.0 7.0 0.00 0.00 0.00 69 1009.8
20260508235031 40 253 3.0 12.0 0.00 0.00 0.00 69 1009.8
20260508234546 40 248 3.0 12.0 0.00 0.00 0.00 70 1009.7
20260508234030 40 248 7.0 12.0 0.00 0.00 0.00 68 1009.5
20260508233532 40 240 5.0 11.0 0.00 0.00 0.00 69 1009.6
20260508233056 41 209 4.0 15.0 0.00 0.00 0.00 69 1009.5
20260508232532 41 263 4.0 15.0 0.00 0.00 0.00 69 1009.5
20260508232035 41 244 4.0 11.0 0.00 0.00 0.00 68 1009.5
20260508231544 41 257 4.0 11.0 0.00 0.00 0.00 68 1009.5
20260508231034 41 255 4.0 11.0 0.00 0.00 0.00 68 1009.5
20260508230531 41 263 3.0 11.0 0.00 0.00 0.00 68 1009.5
20260508230055 41 273 4.0 11.0 0.00 0.00 0.00 69 1009.4
20260508225531 41 263 2.0 11.0 0.00 0.00 0.00 70 1009.3
20260508225031 41 273 3.0 10.0 0.00 0.00 0.00 70 1009.4
20260508224544 41 249 4.0 13.0 0.00 0.00 0.00 69 1009.4
20260508224031 41 184 5.0 13.0 0.00 0.00 0.00 69 1009.3
20260508223531 41 224 5.0 11.0 0.00 0.00 0.00 69 1009.3
20260508223041 42 251 4.0 12.0 0.00 0.00 0.00 69 1009.3
20260508222530 42 216 5.0 12.0 0.00 0.00 0.00 68 1009.3
20260508222032 42 251 5.0 11.0 0.00 0.00 0.00 66 1009.2
20260508221546 43 261 3.0 8.0 0.00 0.00 0.00 66 1009.3
20260508221031 43 278 4.0 12.0 0.00 0.00 0.00 65 1009.4
20260508220531 44 264 4.0 12.0 0.00 0.00 0.00 64 1009.2
20260508220051 43 219 5.0 12.0 0.00 0.00 0.00 65 1009.3
20260508215530 44 264 3.0 9.0 0.00 0.00 0.00 64 1009.2
20260508215030 44 257 3.0 11.0 0.00 0.00 0.00 65 1009.2
20260508214548 43 210 5.0 13.0 0.00 0.00 0.00 64 1009.1
20260508214032 44 263 5.0 13.0 0.00 0.00 0.00 63 1009.1
20260508213533 44 256 4.0 12.0 0.00 0.00 0.00 63 1009.0
20260508213043 44 230 3.0 11.0 0.00 0.00 0.00 65 1009.0
20260508212529 43 234 6.0 11.0 0.00 0.00 0.00 67 1009.0
20260508212029 42 238 5.0 10.0 0.00 0.00 0.00 67 1009.0
20260508211543 43 241 4.0 13.0 0.00 0.00 0.00 67 1009.0
20260508211030 43 229 7.0 13.0 0.00 0.00 0.00 67 1008.9
20260508210530 43 247 5.0 13.0 0.00 0.00 0.00 67 1008.9
20260508210057 43 250 3.0 12.0 0.00 0.00 0.00 67 1008.9
20260508205530 43 218 4.0 14.0 0.00 0.00 0.00 66 1008.9
20260508205031 44 247 5.0 18.0 0.00 0.00 0.00 64 1008.9
20260508204545 45 292 7.0 24.0 0.00 0.00 0.00 57 1008.7
20260508204029 46 242 8.0 24.0 0.00 0.00 0.00 53 1008.5
20260508203529 48 230 11.0 24.0 0.00 0.00 0.00 50 1008.2
20260508203047 49 252 5.0 15.0 0.00 0.00 0.00 53 1008.4
20260508202530 48 253 6.0 15.0 0.00 0.00 0.00 51 1008.2
20260508202029 48 209 7.0 15.0 0.00 0.00 0.00 50 1008.2
20260508201546 48 215 4.0 14.0 0.00 0.00 0.00 51 1008.1
20260508201029 47 227 7.0 13.0 0.00 0.00 0.00 50 1008.1
20260508200531 47 215 5.0 16.0 0.00 0.00 0.00 51 1008.2
20260508200048 48 225 4.0 16.0 0.00 0.00 0.00 50 1008.1
20260508195530 48 190 5.0 16.0 0.00 0.00 0.00 51 1008.1
20260508195032 48 258 8.0 16.0 0.00 0.00 0.00 49 1008.1
20260508194545 48 266 7.0 17.0 0.00 0.00 0.00 50 1008.1
20260508194031 48 213 8.0 18.0 0.00 0.00 0.00 51 1008.2
20260508193529 48 252 9.0 18.0 0.00 0.00 0.00 49 1008.4
20260508193052 48 234 6.0 15.0 0.00 0.00 0.00 51 1008.2
20260508192529 48 206 6.0 15.0 0.00 0.00 0.00 50 1008.3
20260508192031 48 215 6.0 15.0 0.00 0.00 0.00 51 1008.2
20260508191548 48 178 6.0 15.0 0.00 0.00 0.00 52 1008.2
20260508191031 46 274 8.0 15.0 0.00 0.00 0.00 53 1008.1
20260508190532 46 239 5.0 15.0 0.00 0.00 0.00 52 1008.2
20260508190054 47 245 7.0 15.0 0.00 0.00 0.00 52 1008.2
20260508185529 47 184 7.0 15.0 0.00 0.00 0.00 53 1008.3
20260508185029 47 240 4.0 15.0 0.00 0.00 0.00 55 1008.4
20260508184600 47 136 7.0 17.0 0.00 0.00 0.00 53 1008.3
20260508184029 47 227 6.0 19.0 0.00 0.00 0.00 55 1008.4
20260508183529 46 221 8.0 19.0 0.00 0.00 0.00 55 1008.5
20260508183044 46 239 9.0 17.0 0.00 0.00 0.00 53 1008.5
20260508182530 47 240 8.0 17.0 0.00 0.00 0.00 53 1008.4
20260508182029 47 269 8.0 19.0 0.00 0.00 0.00 51 1008.4
20260508181557 47 261 8.0 19.0 0.00 0.00 0.00 52 1008.2
20260508181029 47 217 8.0 16.0 0.00 0.00 0.00 51 1008.3
20260508180529 46 197 7.0 16.0 0.00 0.00 0.00 52 1008.3
20260508180046 47 271 5.0 21.0 0.00 0.00 0.00 52 1008.2
20260508175530 47 258 6.0 21.0 0.00 0.00 0.00 51 1008.2
20260508175030 47 103 7.0 21.0 0.00 0.00 0.00 50 1008.3
20260508174545 47 219 8.0 19.0 0.00 0.00 0.00 51 1008.4
20260508174029 47 211 8.0 20.0 0.00 0.00 0.00 50 1008.4
20260508173530 48 211 8.0 20.0 0.00 0.00 0.00 50 1008.4
20260508173048 47 257 4.0 16.0 0.00 0.00 0.00 53 1008.4
20260508172529 46 256 7.0 16.0 0.00 0.00 0.00 50 1008.4
20260508172029 46 201 7.0 14.0 0.00 0.00 0.00 52 1008.4
20260508171544 46 195 6.0 19.0 0.00 0.00 0.00 53 1008.4
20260508171030 45 273 9.0 19.0 0.00 0.00 0.00 53 1008.5
20260508170532 44 190 8.0 19.0 0.00 0.00 0.00 55 1008.5
20260508170042 44 240 9.0 17.0 0.00 0.00 0.00 55 1008.4
20260508165530 44 240 6.0 17.0 0.00 0.00 0.00 55 1008.5
20260508165032 43 220 7.0 15.0 0.00 0.00 0.00 54 1008.4
20260508164558 43 277 6.0 16.0 0.00 0.00 0.00 54 1008.5
20260508164031 43 255 8.0 16.0 0.00 0.00 0.00 53 1008.5
20260508163531 43 186 7.0 13.0 0.00 0.00 0.00 53 1008.5
20260508163045 43 270 5.0 14.0 0.00 0.00 0.00 53 1008.4
20260508162531 43 231 6.0 14.0 0.00 0.00 0.00 53 1008.5
20260508162032 43 281 6.0 12.0 0.00 0.00 0.00 54 1008.6
20260508161549 43 254 5.0 12.0 0.00 0.00 0.00 54 1008.5
20260508161032 43 247 6.0 12.0 0.00 0.00 0.00 52 1008.5
20260508160530 43 250 4.0 12.0 0.00 0.00 0.00 52 1008.4
20260508160044 44 207 4.0 12.0 0.00 0.00 0.00 52 1008.6
20260508155529 44 235 6.0 11.0 0.00 0.00 0.00 51 1008.5
20260508155029 44 246 5.0 12.0 0.00 0.00 0.00 52 1008.6
20260508154544 45 227 4.0 12.0 0.00 0.00 0.00 50 1008.4
20260508154030 45 250 6.0 12.0 0.00 0.00 0.00 50 1008.5
20260508153531 44 238 3.0 15.0 0.00 0.00 0.00 51 1008.5
20260508153040 45 281 6.0 15.0 0.00 0.00 0.00 49 1008.5